St. Johnsbury, VT

7:36 AM EDT on April 23, 2017 (GMT -0400)
St. Johnsbury

Weather History for K1V4 - April, 2014

Change the Weather History Date:

Sunday, April 20, 2014

  Actual Average Record
Temperature  
Mean Temperature 42 °F 46 °F  
Max Temperature 60 °F 59 °F 89 °F (1941)
Min Temperature 23 °F 34 °F 12 °F (1897)
Degree Days  
Heating Degree Days 23 19  
Month to date heating degree days 497 456  
Since 1 July heating degree days 7950 7256  
Cooling Degree Days 0 0  
Month to date cooling degree days 0 0  
Year to date cooling degree days 0 0  
Moisture  
Dew Point 16 °F    
Average Humidity 50    
Maximum Humidity 88    
Minimum Humidity 12    
Precipitation  
Precipitation 0.00 in 0.10 in 1.08 in (1950)
Month to date precipitation 2.48 1.87  
Year to date precipitation 10.48 9.06  
Sea Level Pressure  
Sea Level Pressure 30.40 in    
Wind  
Wind Speed - (North)    
Max Wind Speed -    
Max Gust Speed -    
T = Trace of Precipitation, MM = Missing Value Source: NWS Daily Summary

Daily Weather History Graph

Daily Weather History Graph

Search for Another Location

Airport or City:

Trip Planner

Search our weather history database for the weather conditions in past years. The results will help you decide how hot, cold, wet, or windy it might be!

Date:

Astronomy

Apr. 20, 2014 Rise Set
Actual Time 5:55 AM EDT 7:38 PM EDT
Civil Twilight 5:25 AM EDT 8:09 PM EDT
Nautical Twilight 4:47 AM EDT 8:47 PM EDT
Astronomical Twilight 4:07 AM EDT 9:27 PM EDT
Moon 12:20 AM EDT (4/20) 10:08 AM EDT (4/20)
Length of Visible Light 14h 44m
Length of Day
13h 42m
Waning Gibbous, 69% of the Moon is Illuminated
Apr 20
Waning Gibbous
Apr 22
Last Quarter
Apr 29
New
May 6
First Quarter
May 14
Full

Hourly Weather History & Observations

Time (EDT) Temp. Dew Point Humidity Pressure Visibility Wind Dir Wind Speed Gust Speed Precip Events Conditions
12:54 AM 28.0 °F 21.9 °F 78% 30.48 in - North - - N/A   Unknown
1:54 AM 27.0 °F 21.9 °F 81% 30.48 in - North - - N/A   Unknown
2:54 AM 25.0 °F 21.0 °F 85% 30.48 in - North - - N/A   Unknown
3:54 AM 25.0 °F 21.0 °F 85% 30.48 in - North - - N/A   Unknown
4:54 AM 24.1 °F 19.9 °F 84% 30.49 in - North - - N/A   Unknown
5:54 AM 23.0 °F 19.9 °F 88% 30.52 in - North - - N/A   Unknown
6:54 AM 24.1 °F 21.0 °F 88% 30.52 in - North - - N/A   Unknown
7:54 AM 27.0 °F 21.9 °F 81% 30.53 in - North - - N/A   Unknown
8:54 AM 34.0 °F 23.0 °F 64% 30.52 in - North - - N/A   Unknown
9:54 AM 41.0 °F 19.0 °F 41% 30.50 in - North - - N/A   Unknown
10:54 AM 46.0 °F 12.9 °F 26% 30.47 in - North - - N/A   Unknown
11:54 AM 50.0 °F 12.9 °F 23% 30.44 in - North - - N/A   Unknown
12:54 PM 54.0 °F 7.0 °F 15% 30.41 in - North - - N/A   Unknown
1:54 PM 55.9 °F 6.1 °F 14% 30.38 in - North - - N/A   Unknown
2:54 PM 57.9 °F 9.0 °F 14% 30.36 in - North - - N/A   Unknown
3:54 PM 60.1 °F 10.0 °F 14% 30.33 in - North - - N/A   Unknown
4:54 PM 59.0 °F 6.1 °F 12% 30.32 in - North - - N/A   Unknown
5:54 PM 59.0 °F 9.0 °F 14% 30.30 in - North - - N/A   Unknown
6:54 PM 57.9 °F 10.0 °F 15% 30.29 in - North - - N/A   Unknown
7:54 PM 54.0 °F 12.0 °F 19% 30.28 in - North - - N/A   Unknown
8:54 PM 46.9 °F 18.0 °F 32% 30.28 in - North - - N/A   Unknown
9:54 PM 41.0 °F 21.9 °F 47% 30.28 in - North - - N/A   Unknown
10:54 PM 39.0 °F 24.1 °F 55% 30.26 in - North - - N/A   Unknown
11:54 PM 36.0 °F 24.1 °F 62% 30.24 in - North - - N/A   Unknown